Tracking 25372 objects as of 24-Jan-2022
HD Live streaming from Space Station
objects crossing your sky now

ESSA 9 (TOS-G)

Track ESSA 9 (TOS-G) now!
10-day predictions
ESSA 9 (TOS-G) is classified as:


NORAD ID: 3764
Int'l Code: 1969-016A
Perigee: 1,432.5 km
Apogee: 1,512.2 km
Inclination: 101.5 °
Period: 115.2 minutes
Semi major axis: 7843 km
RCS: 0.8603 m2 (medium)
Launch date: February 26, 1969
Source: United States (US)
Launch site: AIR FORCE EASTERN TEST RANGE (AFETR)
aabbcc
Your satellite tracking list
Your tracking list is empty




NASA's NSSDC Master Catalog

Two Line Element Set (TLE):
1 03764U 69016A   22024.60663697 -.00000053  00000-0 -66052-4 0  9998
2 03764 101.5325  71.3747 0050813 347.6350 138.2000 12.49838136787363
Source of the keplerian elements: AFSPC